Location: Santa Giusta
(39.8800°N, 8.6069°E)
Time: 17:43:39
(UTC+00:00)

Cosmos 2333 - Pass Details

Date: 02 February 2023
Orbit: 828 x 867 km, 70.9° (Epoch: 31 March)

Event Time Altitude Azimuth Distance (km) Brightness Sun altitude
Rises 18:43:59 0° 205° (SSW) 3,355 7.7 -22.9°
Reaches altitude 10° 18:46:24 10° 207° (SSW) 2,427 6.9 -23.4°
Maximum altitude 18:51:58 77° 293° (WNW) 858 4.2 -24.4°
Enters shadow 18:55:00 28° 16° (NNE) 1,511 5.3 -25.0°
